ISIS 1

Last updated on Sun Jun 21 2026 00:02:14 GMT+0000 (Coordinated Universal Time)

1 03669U 69009A 26171.37783306 .00000047 00000+0 33808-4 0 9998 2 03669 88.4426 144.0490 1706318 241.7756 100.0821 11.30434104360134
UTC large
Height (km)
Speed (km/s)
/
Latitude / Longitude
Inclination (degrees)
Orbital Period (minutes)
Azimuth
Elevation
Range (km)
Doppler Factor

Next 0 passes for location: London (51.5072 / 0.1276)

No passes found over London.
ISIS 1